Time,TemperatureF,DewpointF,PressureIn,WindDirection,WindDirectionDegrees,WindSpeedMPH,WindSpeedGustMPH,Humidity,HourlyPrecipIn,Conditions,Clouds,dailyrainin,SoftwareType,DateUTC
2013-03-03 00:00:00,35.4,29.9,29.62,East,82,0.0,13.2,80,0.00,,---,0.00,VWS V13.00,2013-03-03 09:00:00,
2013-03-03 00:05:00,35.4,30.2,29.62,SE,146,0.0,14.1,81,0.00,,---,0.00,VWS V13.00,2013-03-03 09:05:00,
2013-03-03 00:10:00,35.4,30.2,29.62,SE,139,11.0,15.0,81,0.00,,---,0.00,VWS V13.00,2013-03-03 09:10:00,
2013-03-03 00:15:00,35.2,30.6,29.62,SE,135,3.6,15.0,83,0.00,,---,0.00,VWS V13.00,2013-03-03 09:15:00,
2013-03-03 00:20:00,35.4,31.1,29.62,SSE,157,0.0,15.0,84,0.00,,---,0.00,VWS V13.00,2013-03-03 09:20:00,
2013-03-03 00:25:00,35.4,31.1,29.62,SSE,163,14.5,14.5,84,0.00,,---,0.00,VWS V13.00,2013-03-03 09:25:00,
2013-03-03 00:30:00,35.4,31.1,29.62,SE,141,0.0,14.5,84,0.00,,---,0.00,VWS V13.00,2013-03-03 09:30:00,
2013-03-03 00:35:00,35.2,31.2,29.62,ENE,68,0.0,14.5,85,0.00,,---,0.00,VWS V13.00,2013-03-03 09:35:00,
2013-03-03 00:40:00,35.2,31.2,29.62,NE,45,2.7,14.5,85,0.00,,---,0.00,VWS V13.00,2013-03-03 09:40:00,
2013-03-03 00:45:00,35.1,31.3,29.62,ENE,70,0.0,8.3,86,0.00,,---,0.00,VWS V13.00,2013-03-03 09:45:00,
2013-03-03 00:50:00,35.1,31.6,29.62,East,101,0.0,8.3,87,0.00,,---,0.00,VWS V13.00,2013-03-03 09:50:00,
2013-03-03 00:55:00,35.2,31.8,29.62,ENE,61,0.0,8.3,87,0.00,,---,0.00,VWS V13.00,2013-03-03 09:55:00,
2013-03-03 01:00:00,35.2,31.8,29.62,ESE,103,0.0,8.3,87,0.00,,---,0.00,VWS V13.00,2013-03-03 10:00:00,
2013-03-03 01:05:00,35.2,31.8,29.62,SSE,163,4.0,8.7,87,0.00,,---,0.00,VWS V13.00,2013-03-03 10:05:00,
2013-03-03 01:10:00,35.4,32.2,29.62,ESE,122,0.0,8.7,88,0.00,,---,0.00,VWS V13.00,2013-03-03 10:10:00,
2013-03-03 01:15:00,35.4,32.2,29.62,ENE,66,0.0,8.7,88,0.00,,---,0.00,VWS V13.00,2013-03-03 10:15:00,
2013-03-03 01:20:00,35.4,32.2,29.62,ESE,118,0.0,2.7,88,0.00,,---,0.00,VWS V13.00,2013-03-03 10:20:00,
2013-03-03 01:25:00,35.4,32.2,29.62,NE,56,3.1,8.7,88,0.00,,---,0.00,VWS V13.00,2013-03-03 10:25:00,
2013-03-03 01:30:00,35.6,32.4,29.62,South,191,0.0,11.0,88,0.00,,---,0.00,VWS V13.00,2013-03-03 10:30:00,
2013-03-03 01:35:00,35.6,32.4,29.62,SSE,161,0.0,12.3,88,0.00,,---,0.00,VWS V13.00,2013-03-03 10:35:00,
2013-03-03 01:40:00,35.6,32.4,29.62,East,87,2.7,12.3,88,0.00,,---,0.00,VWS V13.00,2013-03-03 10:40:00,
2013-03-03 01:45:00,35.6,32.4,29.62,SE,128,2.7,12.8,88,0.00,,---,0.00,VWS V13.00,2013-03-03 10:45:00,
2013-03-03 01:50:00,35.6,32.4,29.62,SSE,158,0.0,12.8,88,0.00,,---,0.00,VWS V13.00,2013-03-03 10:50:00,
2013-03-03 01:55:00,35.6,32.4,29.62,SE,130,11.9,12.8,88,0.00,,---,0.00,VWS V13.00,2013-03-03 10:55:00,
2013-03-03 02:00:00,35.6,32.4,29.62,South,182,3.1,12.8,88,0.00,,---,0.00,VWS V13.00,2013-03-03 11:00:00,
2013-03-03 02:05:00,35.6,32.4,29.62,ESE,113,5.8,8.7,88,0.00,,---,0.00,VWS V13.00,2013-03-03 11:05:00,
2013-03-03 02:10:00,35.6,32.4,29.62,SE,135,3.1,10.1,88,0.00,,---,0.00,VWS V13.00,2013-03-03 11:10:00,
2013-03-03 02:15:00,35.6,32.7,29.62,NNE,31,4.0,11.0,89,0.00,,---,0.00,VWS V13.00,2013-03-03 11:15:00,
2013-03-03 02:20:00,35.6,32.7,29.62,SE,128,0.0,11.0,89,0.00,,---,0.00,VWS V13.00,2013-03-03 11:20:00,
2013-03-03 02:25:00,35.6,32.7,29.62,ENE,59,0.0,0.0,89,0.00,,---,0.00,VWS V13.00,2013-03-03 11:25:00,
2013-03-03 02:30:00,35.6,32.7,29.62,SSW,193,8.7,12.3,89,0.00,,---,0.00,VWS V13.00,2013-03-03 11:30:00,
2013-03-03 02:34:00,35.6,33.0,29.62,SSE,148,10.1,12.3,90,0.00,,---,0.00,VWS V13.00,2013-03-03 11:34:00,
2013-03-03 02:39:00,35.6,33.0,29.59,SE,133,8.7,12.8,90,0.00,,---,0.00,VWS V13.00,2013-03-03 11:39:00,
2013-03-03 02:44:00,35.6,33.0,29.59,ESE,114,7.6,8.7,90,0.00,,---,0.00,VWS V13.00,2013-03-03 11:44:00,
2013-03-03 02:49:00,35.6,33.0,29.59,SE,126,3.6,13.6,90,0.00,,---,0.00,VWS V13.00,2013-03-03 11:49:00,
2013-03-03 02:54:00,35.4,33.1,29.59,SSE,157,0.0,13.6,91,0.00,,---,0.00,VWS V13.00,2013-03-03 11:54:00,
2013-03-03 02:59:00,35.4,33.1,29.59,ENE,74,0.0,13.6,91,0.00,,---,0.00,VWS V13.00,2013-03-03 11:59:00,
2013-03-03 03:04:00,35.4,33.1,29.59,East,101,0.0,0.0,91,0.00,,---,0.00,VWS V13.00,2013-03-03 12:04:00,
2013-03-03 03:09:00,35.2,32.9,29.59,ENE,75,6.3,6.3,91,0.00,,---,0.00,VWS V13.00,2013-03-03 12:09:00,
2013-03-03 03:14:00,35.1,33.0,29.59,SSE,158,0.0,7.2,92,0.00,,---,0.00,VWS V13.00,2013-03-03 12:14:00,
2013-03-03 03:19:00,35.1,33.0,29.59,East,100,6.3,7.6,92,0.00,,---,0.00,VWS V13.00,2013-03-03 12:19:00,
2013-03-03 03:24:00,35.1,33.0,29.59,SSE,156,12.8,12.8,92,0.00,,---,0.00,VWS V13.00,2013-03-03 12:24:00,
2013-03-03 03:29:00,35.2,33.4,29.59,SSW,207,2.7,12.8,93,0.00,,---,0.00,VWS V13.00,2013-03-03 12:29:00,
2013-03-03 03:34:00,35.2,33.4,29.59,SE,141,7.6,12.8,93,0.00,,---,0.00,VWS V13.00,2013-03-03 12:34:00,
2013-03-03 03:39:00,35.2,33.4,29.59,SSE,167,0.0,12.8,93,0.00,,---,0.00,VWS V13.00,2013-03-03 12:39:00,
2013-03-03 03:44:00,35.2,33.4,29.59,South,186,0.0,10.5,93,0.00,,---,0.00,VWS V13.00,2013-03-03 12:44:00,
2013-03-03 03:49:00,35.2,33.4,29.59,SSE,163,8.7,13.6,93,0.00,,---,0.00,VWS V13.00,2013-03-03 12:49:00,
2013-03-03 03:54:00,35.2,33.7,29.59,SE,142,2.7,13.6,94,0.00,,---,0.00,VWS V13.00,2013-03-03 12:54:00,
2013-03-03 03:59:00,35.4,33.9,29.59,SE,143,7.6,13.6,94,0.00,,---,0.00,VWS V13.00,2013-03-03 12:59:00,
2013-03-03 04:04:00,35.4,33.9,29.59,SSE,150,0.0,9.6,94,0.00,,---,0.00,VWS V13.00,2013-03-03 13:04:00,
2013-03-03 04:09:00,35.4,33.9,29.59,ENE,69,0.0,9.6,94,0.00,,---,0.00,VWS V13.00,2013-03-03 13:09:00,
2013-03-03 04:14:00,35.4,33.9,29.59,ENE,60,0.0,9.6,94,0.00,,---,0.00,VWS V13.00,2013-03-03 13:14:00,
2013-03-03 04:19:00,35.4,33.9,29.59,SE,126,0.0,9.6,94,0.00,,---,0.00,VWS V13.00,2013-03-03 13:19:00,
2013-03-03 04:24:00,35.4,33.9,29.59,ESE,116,0.0,7.6,94,0.00,,---,0.00,VWS V13.00,2013-03-03 13:24:00,
2013-03-03 04:29:00,35.4,33.9,29.59,SSE,158,0.0,8.1,94,0.00,,---,0.00,VWS V13.00,2013-03-03 13:29:00,
2013-03-03 04:34:00,35.4,33.9,29.59,ENE,60,10.5,11.9,94,0.00,,---,0.00,VWS V13.00,2013-03-03 13:34:00,
2013-03-03 04:39:00,35.4,33.9,29.59,East,81,12.8,12.8,94,0.00,,---,0.00,VWS V13.00,2013-03-03 13:39:00,
2013-03-03 04:44:00,35.4,33.9,29.59,ENE,76,0.0,12.8,94,0.00,,---,0.00,VWS V13.00,2013-03-03 13:44:00,
2013-03-03 04:49:00,35.4,33.9,29.59,SSE,166,7.6,12.8,94,0.00,,---,0.00,VWS V13.00,2013-03-03 13:49:00,
2013-03-03 04:54:00,35.4,33.9,29.59,East,89,0.0,12.8,94,0.00,,---,0.00,VWS V13.00,2013-03-03 13:54:00,
2013-03-03 04:59:00,35.4,33.9,29.59,East,82,4.0,12.8,94,0.00,,---,0.00,VWS V13.00,2013-03-03 13:59:00,
2013-03-03 05:04:00,35.4,33.9,29.59,ESE,123,0.0,7.2,94,0.00,,---,0.00,VWS V13.00,2013-03-03 14:04:00,
2013-03-03 05:09:00,35.4,33.9,29.59,ESE,119,5.8,10.1,94,0.00,,---,0.00,VWS V13.00,2013-03-03 14:09:00,
2013-03-03 05:14:00,35.4,33.9,29.59,East,97,5.4,12.8,94,0.00,,---,0.00,VWS V13.00,2013-03-03 14:14:00,
2013-03-03 05:19:00,35.4,33.9,29.59,ENE,63,0.0,12.8,94,0.00,,---,0.00,VWS V13.00,2013-03-03 14:19:00,
2013-03-03 05:24:00,35.4,34.1,29.59,East,80,4.0,5.8,95,0.00,,---,0.00,VWS V13.00,2013-03-03 14:24:00,
2013-03-03 05:29:00,35.4,33.9,29.59,SE,126,5.8,8.1,94,0.00,,---,0.00,VWS V13.00,2013-03-03 14:29:00,
2013-03-03 05:34:00,35.4,33.9,29.59,East,86,0.0,10.5,94,0.00,,---,0.00,VWS V13.00,2013-03-03 14:34:00,
2013-03-03 05:39:00,35.4,33.9,29.59,South,176,7.2,10.5,94,0.00,,---,0.00,VWS V13.00,2013-03-03 14:39:00,
2013-03-03 05:44:00,35.4,33.9,29.59,South,188,9.6,22.4,94,0.00,,---,0.00,VWS V13.00,2013-03-03 14:44:00,
2013-03-03 05:49:00,35.4,34.1,29.59,SSW,193,0.0,22.4,95,0.00,,---,0.00,VWS V13.00,2013-03-03 14:49:00,
2013-03-03 05:54:00,35.4,34.1,29.59,ENE,65,5.4,22.4,95,0.00,,---,0.00,VWS V13.00,2013-03-03 14:54:00,
2013-03-03 05:59:00,35.4,34.1,29.59,ENE,76,3.1,22.4,95,0.00,,---,0.00,VWS V13.00,2013-03-03 14:59:00,
2013-03-03 06:04:00,35.4,34.1,29.59,SE,142,4.9,12.3,95,0.00,,---,0.00,VWS V13.00,2013-03-03 15:04:00,
2013-03-03 06:09:00,35.4,34.1,29.59,SE,131,0.0,12.3,95,0.00,,---,0.00,VWS V13.00,2013-03-03 15:09:00,
2013-03-03 06:14:00,35.4,34.1,29.59,ENE,74,8.3,12.3,95,0.00,,---,0.00,VWS V13.00,2013-03-03 15:14:00,
2013-03-03 06:19:00,35.4,34.1,29.59,East,91,0.0,12.3,95,0.00,,---,0.00,VWS V13.00,2013-03-03 15:19:00,
2013-03-03 06:24:00,35.4,34.1,29.59,SE,124,0.0,15.0,95,0.00,,---,0.00,VWS V13.00,2013-03-03 15:24:00,
2013-03-03 06:29:00,35.4,34.1,29.59,ESE,109,0.0,15.0,95,0.00,,---,0.00,VWS V13.00,2013-03-03 15:29:00,
2013-03-03 06:34:00,35.6,34.3,29.59,SE,146,8.7,15.4,95,0.00,,---,0.00,VWS V13.00,2013-03-03 15:34:00,
2013-03-03 06:39:00,35.8,34.5,29.59,SE,127,11.0,15.4,95,0.00,,---,0.00,VWS V13.00,2013-03-03 15:39:00,
2013-03-03 06:44:00,35.8,34.5,29.59,SSW,195,5.4,11.0,95,0.00,,---,0.00,VWS V13.00,2013-03-03 15:44:00,
2013-03-03 06:49:00,35.8,34.5,29.59,SSE,148,11.0,11.0,95,0.00,,---,0.00,VWS V13.00,2013-03-03 15:49:00,
2013-03-03 06:54:00,36.0,34.7,29.59,East,95,0.0,11.0,95,0.00,,---,0.00,VWS V13.00,2013-03-03 15:54:00,
2013-03-03 06:59:00,36.0,34.4,29.59,East,85,15.0,22.4,94,0.00,,---,0.00,VWS V13.00,2013-03-03 15:59:00,
2013-03-03 07:04:00,36.0,34.4,29.59,SE,135,5.8,15.0,94,0.00,,---,0.00,VWS V13.00,2013-03-03 16:04:00,
2013-03-03 07:09:00,36.0,34.4,29.59,ESE,120,5.4,15.0,94,0.00,,---,0.00,VWS V13.00,2013-03-03 16:09:00,
2013-03-03 07:14:00,36.1,34.6,29.59,East,82,9.2,15.0,94,0.00,,---,0.00,VWS V13.00,2013-03-03 16:14:00,
2013-03-03 07:19:00,36.1,34.6,29.59,South,179,13.2,15.0,94,0.00,,---,0.00,VWS V13.00,2013-03-03 16:19:00,
2013-03-03 07:24:00,36.1,34.6,29.59,NE,50,0.0,5.8,94,0.00,,---,0.00,VWS V13.00,2013-03-03 16:24:00,
2013-03-03 07:29:00,36.1,34.6,29.59,East,101,7.6,8.7,94,0.00,,---,0.00,VWS V13.00,2013-03-03 16:29:00,
2013-03-03 07:34:00,36.1,34.6,29.59,SSW,192,0.0,8.7,94,0.00,,---,0.00,VWS V13.00,2013-03-03 16:34:00,
2013-03-03 07:39:00,36.1,34.6,29.59,ENE,67,0.0,10.1,94,0.00,,---,0.00,VWS V13.00,2013-03-03 16:39:00,
2013-03-03 07:44:00,36.1,34.6,29.59,SE,127,6.3,8.7,94,0.00,,---,0.00,VWS V13.00,2013-03-03 16:44:00,
2013-03-03 07:49:00,36.3,34.8,29.59,SSE,158,4.5,8.7,94,0.00,,---,0.00,VWS V13.00,2013-03-03 16:49:00,
2013-03-03 07:54:00,36.3,34.8,29.59,East,100,0.0,8.7,94,0.00,,---,0.00,VWS V13.00,2013-03-03 16:54:00,
2013-03-03 07:59:00,36.3,34.8,29.59,ENE,60,8.7,8.7,94,0.00,,---,0.00,VWS V13.00,2013-03-03 16:59:00,
2013-03-03 08:04:00,36.3,34.8,29.59,ESE,122,5.8,12.8,94,0.00,,---,0.00,VWS V13.00,2013-03-03 17:04:00,
2013-03-03 08:09:00,36.3,34.8,29.59,ENE,71,0.0,12.8,94,0.00,,---,0.00,VWS V13.00,2013-03-03 17:09:00,
2013-03-03 08:14:00,36.3,34.8,29.59,ENE,61,3.1,14.1,94,0.00,,---,0.00,VWS V13.00,2013-03-03 17:14:00,
2013-03-03 08:19:00,36.3,34.8,29.59,South,176,0.0,14.1,94,0.00,,---,0.00,VWS V13.00,2013-03-03 17:19:00,
2013-03-03 08:24:00,36.3,34.8,29.59,East,101,10.5,10.5,94,0.00,,---,0.00,VWS V13.00,2013-03-03 17:24:00,
2013-03-03 08:29:00,36.5,34.9,29.59,ENE,60,10.5,10.5,94,0.00,,---,0.00,VWS V13.00,2013-03-03 17:29:00,
2013-03-03 08:34:00,36.5,34.9,29.59,East,100,0.0,10.5,94,0.00,,---,0.00,VWS V13.00,2013-03-03 17:34:00,
2013-03-03 08:39:00,36.7,35.1,29.59,South,190,12.8,12.8,94,0.00,,---,0.00,VWS V13.00,2013-03-03 17:39:00,
2013-03-03 08:44:00,36.7,35.1,29.59,WNW,298,3.6,12.8,94,0.00,,---,0.00,VWS V13.00,2013-03-03 17:44:00,
2013-03-03 08:49:00,36.7,35.1,29.59,ENE,72,0.0,12.8,94,0.00,,---,0.00,VWS V13.00,2013-03-03 17:49:00,
2013-03-03 08:54:00,36.7,35.1,29.59,ESE,104,10.1,12.8,94,0.00,,---,0.00,VWS V13.00,2013-03-03 17:54:00,
2013-03-03 08:59:00,36.7,35.1,29.59,East,85,0.0,17.0,94,0.00,,---,0.00,VWS V13.00,2013-03-03 17:59:00,
2013-03-03 09:04:00,36.7,35.1,29.59,NE,56,9.2,9.2,94,0.00,,---,0.00,VWS V13.00,2013-03-03 18:04:00,
2013-03-03 09:09:00,36.7,35.1,29.59,ENE,69,8.1,14.5,94,0.00,,---,0.00,VWS V13.00,2013-03-03 18:09:00,
2013-03-03 09:14:00,36.9,35.3,29.59,ESE,102,8.3,15.0,94,0.00,,---,0.00,VWS V13.00,2013-03-03 18:14:00,
2013-03-03 09:19:00,36.9,35.3,29.59,SE,137,4.5,15.0,94,0.00,,---,0.00,VWS V13.00,2013-03-03 18:19:00,
2013-03-03 09:24:00,36.9,35.3,29.59,SE,131,4.0,12.3,94,0.00,,---,0.00,VWS V13.00,2013-03-03 18:24:00,
2013-03-03 09:29:00,36.9,35.0,29.59,East,89,4.0,12.3,93,0.00,,---,0.00,VWS V13.00,2013-03-03 18:29:00,
2013-03-03 09:34:00,36.9,35.0,29.59,East,93,5.4,12.3,93,0.00,,---,0.00,VWS V13.00,2013-03-03 18:34:00,
2013-03-03 09:39:00,36.9,35.0,29.59,East,93,8.1,15.4,93,0.00,,---,0.00,VWS V13.00,2013-03-03 18:39:00,
2013-03-03 09:44:00,36.9,35.0,29.59,East,94,5.4,13.2,93,0.00,,---,0.00,VWS V13.00,2013-03-03 18:44:00,
2013-03-03 09:49:00,36.9,35.0,29.59,NE,51,0.0,13.2,93,0.00,,---,0.00,VWS V13.00,2013-03-03 18:49:00,
2013-03-03 09:54:00,37.0,35.2,29.59,ENE,69,0.0,15.0,93,0.00,,---,0.00,VWS V13.00,2013-03-03 18:54:00,
2013-03-03 09:59:00,37.0,35.2,29.59,SSE,155,0.0,15.0,93,0.00,,---,0.00,VWS V13.00,2013-03-03 18:59:00,
2013-03-03 10:04:00,37.0,35.2,29.59,South,177,10.1,13.2,93,0.00,,---,0.00,VWS V13.00,2013-03-03 19:04:00,
2013-03-03 10:09:00,37.0,35.2,29.59,ESE,122,15.4,15.4,93,0.00,,---,0.00,VWS V13.00,2013-03-03 19:09:00,
2013-03-03 10:14:00,37.0,35.2,29.59,SSE,160,3.1,15.4,93,0.00,,---,0.00,VWS V13.00,2013-03-03 19:14:00,
2013-03-03 10:19:00,37.0,35.2,29.59,SSE,168,9.6,18.8,93,0.00,,---,0.00,VWS V13.00,2013-03-03 19:19:00,
2013-03-03 10:24:00,37.0,35.2,29.59,ENE,58,8.3,9.6,93,0.00,,---,0.00,VWS V13.00,2013-03-03 19:24:00,
2013-03-03 10:29:00,37.0,35.2,29.59,East,94,8.1,11.0,93,0.00,,---,0.00,VWS V13.00,2013-03-03 19:29:00,
2013-03-03 10:34:00,37.4,35.6,29.59,SSE,159,0.0,11.0,93,0.00,,---,0.00,VWS V13.00,2013-03-03 19:34:00,
2013-03-03 10:39:00,37.2,35.4,29.59,East,97,13.2,13.2,93,0.00,,---,0.00,VWS V13.00,2013-03-03 19:39:00,
2013-03-03 10:44:00,37.2,35.4,29.59,East,79,14.5,14.5,93,0.00,,---,0.00,VWS V13.00,2013-03-03 19:44:00,
2013-03-03 10:49:00,37.2,35.4,29.59,East,94,12.8,15.0,93,0.00,,---,0.00,VWS V13.00,2013-03-03 19:49:00,
2013-03-03 10:54:00,37.4,35.6,29.59,ESE,108,5.8,15.0,93,0.00,,---,0.00,VWS V13.00,2013-03-03 19:54:00,
2013-03-03 10:59:00,37.4,35.3,29.59,ENE,63,5.8,15.0,92,0.00,,---,0.00,VWS V13.00,2013-03-03 19:59:00,
2013-03-03 11:04:00,37.4,35.3,29.59,SW,233,3.6,17.0,92,0.00,,---,0.00,VWS V13.00,2013-03-03 20:04:00,
2013-03-03 11:09:00,37.4,35.3,29.59,East,99,8.7,17.0,92,0.00,,---,0.00,VWS V13.00,2013-03-03 20:09:00,
2013-03-03 11:14:00,37.4,35.0,29.59,ESE,111,10.5,21.9,91,0.00,,---,0.00,VWS V13.00,2013-03-03 20:14:00,
2013-03-03 11:19:00,37.4,35.0,29.59,ESE,104,5.4,21.9,91,0.00,,---,0.00,VWS V13.00,2013-03-03 20:19:00,
2013-03-03 11:24:00,37.4,35.0,29.59,SE,139,0.0,12.3,91,0.00,,---,0.00,VWS V13.00,2013-03-03 20:24:00,
2013-03-03 11:29:00,37.4,35.3,29.59,SSE,165,0.0,12.3,92,0.00,,---,0.00,VWS V13.00,2013-03-03 20:29:00,
2013-03-03 11:34:00,37.6,35.5,29.59,SSE,155,0.0,26.6,92,0.00,,---,0.00,VWS V13.00,2013-03-03 20:34:00,
2013-03-03 11:39:00,37.6,35.5,29.59,SSE,160,4.5,26.6,92,0.00,,---,0.00,VWS V13.00,2013-03-03 20:39:00,
2013-03-03 11:44:00,37.6,35.2,29.59,ENE,75,5.4,14.5,91,0.00,,---,0.00,VWS V13.00,2013-03-03 20:44:00,
2013-03-03 11:49:00,37.6,35.2,29.59,East,100,0.0,14.5,91,0.00,,---,0.00,VWS V13.00,2013-03-03 20:49:00,
2013-03-03 11:54:00,37.6,35.2,29.59,East,79,6.3,17.9,91,0.00,,---,0.00,VWS V13.00,2013-03-03 20:54:00,
2013-03-03 11:59:00,37.6,35.2,29.59,SE,129,8.7,17.9,91,0.00,,---,0.00,VWS V13.00,2013-03-03 20:59:00,
2013-03-03 12:04:00,37.6,35.2,29.59,SSE,147,8.7,12.8,91,0.00,,---,0.00,VWS V13.00,2013-03-03 21:04:00,
2013-03-03 12:09:00,37.8,35.4,29.59,ENE,71,9.6,15.0,91,0.00,,---,0.00,VWS V13.00,2013-03-03 21:09:00,
2013-03-03 12:14:00,37.8,35.4,29.59,ESE,104,7.2,15.0,91,0.00,,---,0.00,VWS V13.00,2013-03-03 21:14:00,
2013-03-03 12:19:00,37.8,35.4,29.59,South,174,0.0,15.0,91,0.00,,---,0.00,VWS V13.00,2013-03-03 21:19:00,
2013-03-03 12:24:00,37.8,35.4,29.59,SSE,167,3.6,11.4,91,0.00,,---,0.00,VWS V13.00,2013-03-03 21:24:00,
2013-03-03 12:29:00,37.9,35.5,29.59,South,173,6.3,15.0,91,0.00,,---,0.00,VWS V13.00,2013-03-03 21:29:00,
2013-03-03 12:34:00,37.9,35.5,29.59,South,177,4.5,15.0,91,0.00,,---,0.00,VWS V13.00,2013-03-03 21:34:00,
2013-03-03 12:39:00,37.9,35.5,29.59,ESE,109,0.0,15.0,91,0.00,,---,0.00,VWS V13.00,2013-03-03 21:39:00,
2013-03-03 12:44:00,37.9,35.5,29.59,SSW,211,0.0,13.2,91,0.00,,---,0.00,VWS V13.00,2013-03-03 21:44:00,
2013-03-03 12:49:00,37.9,35.5,29.59,ESE,105,0.0,13.2,91,0.00,,---,0.00,VWS V13.00,2013-03-03 21:49:00,
2013-03-03 12:54:00,38.1,35.7,29.59,ENE,62,4.0,13.2,91,0.00,,---,0.00,VWS V13.00,2013-03-03 21:54:00,
2013-03-03 12:59:00,38.3,35.9,29.59,ESE,122,7.6,13.2,91,0.00,,---,0.00,VWS V13.00,2013-03-03 21:59:00,
2013-03-03 13:04:00,38.3,35.9,29.59,SE,129,5.8,12.8,91,0.00,,---,0.00,VWS V13.00,2013-03-03 22:04:00,
2013-03-03 13:09:00,38.3,35.9,29.59,SE,133,5.4,12.8,91,0.00,,---,0.00,VWS V13.00,2013-03-03 22:09:00,
2013-03-03 13:14:00,38.5,36.1,29.59,SSE,152,8.7,12.8,91,0.00,,---,0.00,VWS V13.00,2013-03-03 22:14:00,
2013-03-03 13:19:00,38.5,36.4,29.59,ENE,75,6.3,12.8,92,0.00,,---,0.00,VWS V13.00,2013-03-03 22:19:00,
2013-03-03 13:24:00,38.5,36.4,29.59,SE,129,8.1,8.3,92,0.00,,---,0.00,VWS V13.00,2013-03-03 22:24:00,
2013-03-03 13:29:00,38.5,36.4,29.59,SSW,202,6.3,12.3,92,0.00,,---,0.00,VWS V13.00,2013-03-03 22:29:00,
2013-03-03 13:34:00,38.7,36.5,29.59,WSW,237,0.0,15.0,92,0.00,,---,0.00,VWS V13.00,2013-03-03 22:34:00,
2013-03-03 13:39:00,38.7,36.5,29.59,South,172,7.6,15.4,92,0.00,,---,0.00,VWS V13.00,2013-03-03 22:39:00,
2013-03-03 13:44:00,38.7,36.8,29.59,SE,145,10.5,10.5,93,0.00,,---,0.00,VWS V13.00,2013-03-03 22:44:00,
2013-03-03 13:49:00,38.7,36.8,29.59,South,189,0.0,13.2,93,0.00,,---,0.00,VWS V13.00,2013-03-03 22:49:00,
2013-03-03 13:54:00,38.7,36.8,29.59,ESE,112,0.0,13.2,93,0.00,,---,0.00,VWS V13.00,2013-03-03 22:54:00,
2013-03-03 13:59:00,38.7,36.8,29.59,SE,140,0.0,13.2,93,0.00,,---,0.00,VWS V13.00,2013-03-03 22:59:00,
2013-03-03 14:04:00,38.7,37.1,29.59,South,184,11.9,11.9,94,0.00,,---,0.00,VWS V13.00,2013-03-03 23:04:00,
2013-03-03 14:09:00,38.7,37.1,29.59,SSW,192,10.5,11.9,94,0.00,,---,0.00,VWS V13.00,2013-03-03 23:09:00,
2013-03-03 14:14:00,38.7,37.1,29.59,ESE,115,3.6,11.9,94,0.00,,---,0.00,VWS V13.00,2013-03-03 23:14:00,
2013-03-03 14:19:00,38.7,37.1,29.59,SSE,164,0.0,11.9,94,0.00,,---,0.00,VWS V13.00,2013-03-03 23:19:00,
2013-03-03 14:24:00,38.7,37.1,29.59,SE,126,0.0,6.3,94,0.00,,---,0.00,VWS V13.00,2013-03-03 23:24:00,
2013-03-03 14:29:00,38.8,37.3,29.59,NE,44,0.0,8.3,94,0.00,,---,0.00,VWS V13.00,2013-03-03 23:29:00,
2013-03-03 14:34:00,38.8,37.3,29.59,SE,138,0.0,8.3,94,0.00,,---,0.00,VWS V13.00,2013-03-03 23:34:00,
2013-03-03 14:39:00,38.8,37.3,29.59,ESE,113,0.0,8.3,94,0.00,,---,0.00,VWS V13.00,2013-03-03 23:39:00,
2013-03-03 14:44:00,38.8,37.3,29.59,SSW,197,0.0,0.0,94,0.00,,---,0.00,VWS V13.00,2013-03-03 23:44:00,
2013-03-03 14:49:00,38.8,37.3,29.59,SSE,164,4.0,10.5,94,0.00,,---,0.00,VWS V13.00,2013-03-03 23:49:00,
2013-03-03 14:54:00,38.7,37.3,29.59,SSE,166,0.0,10.5,95,0.00,,---,0.00,VWS V13.00,2013-03-03 23:54:00,
2013-03-03 14:59:00,38.8,37.5,29.59,ENE,68,0.0,11.0,95,0.00,,---,0.00,VWS V13.00,2013-03-03 23:59:00,
2013-03-03 15:04:00,38.8,37.5,29.59,West,276,0.0,10.1,95,0.00,,---,0.00,VWS V13.00,2013-03-04 00:04:00,
2013-03-03 15:09:00,38.8,37.5,29.59,South,183,0.0,10.1,95,0.00,,---,0.00,VWS V13.00,2013-03-04 00:09:00,
2013-03-03 15:14:00,38.3,37.0,29.59,SSW,203,8.7,10.1,95,0.00,,---,0.00,VWS V13.00,2013-03-04 00:14:00,
2013-03-03 15:19:00,38.3,37.0,29.59,East,95,0.0,10.1,95,0.00,,---,0.00,VWS V13.00,2013-03-04 00:19:00,
2013-03-03 15:24:00,38.1,36.8,29.59,SSE,162,0.0,0.0,95,0.00,,---,0.00,VWS V13.00,2013-03-04 00:24:00,
2013-03-03 15:29:00,38.1,36.8,29.59,South,179,0.0,5.4,95,0.00,,---,0.00,VWS V13.00,2013-03-04 00:29:00,
2013-03-03 15:34:00,37.9,36.4,29.59,ESE,107,0.0,5.4,94,0.00,,---,0.00,VWS V13.00,2013-03-04 00:34:00,
2013-03-03 15:39:00,37.8,35.9,29.77,SSE,152,0.0,5.4,93,0.00,,---,0.00,VWS V13.00,2013-03-04 00:39:00,
2013-03-03 15:44:00,37.6,35.7,29.77,SSE,157,0.0,0.0,93,0.00,,---,0.00,VWS V13.00,2013-03-04 00:44:00,
2013-03-03 15:49:00,37.6,35.7,29.77,South,186,0.0,0.0,93,0.00,,---,0.00,VWS V13.00,2013-03-04 00:49:00,
2013-03-03 15:54:00,37.8,35.9,29.77,SE,143,0.0,0.0,93,0.00,,---,0.00,VWS V13.00,2013-03-04 00:54:00,
2013-03-03 15:59:00,37.8,35.9,29.77,SSE,157,0.0,0.0,93,0.00,,---,0.00,VWS V13.00,2013-03-04 00:59:00,
2013-03-03 16:04:00,37.8,35.7,29.77,South,174,0.0,0.0,92,0.00,,---,0.00,VWS V13.00,2013-03-04 01:04:00,
2013-03-03 16:09:00,37.6,35.5,29.77,SW,234,0.0,0.0,92,0.00,,---,0.00,VWS V13.00,2013-03-04 01:09:00,
2013-03-03 16:14:00,37.6,35.5,29.77,ESE,123,0.0,0.0,92,0.00,,---,0.00,VWS V13.00,2013-03-04 01:14:00,
2013-03-03 16:19:00,37.6,35.5,29.77,SE,146,0.0,0.0,92,0.00,,---,0.00,VWS V13.00,2013-03-04 01:19:00,
2013-03-03 16:24:00,37.6,35.5,29.77,ESE,112,0.0,0.0,92,0.00,,---,0.00,VWS V13.00,2013-03-04 01:24:00,
2013-03-03 16:29:00,37.6,35.2,29.77,SSW,193,0.0,0.0,91,0.00,,---,0.00,VWS V13.00,2013-03-04 01:29:00,
2013-03-03 16:34:00,37.8,35.4,29.77,SE,142,0.0,0.0,91,0.00,,---,0.00,VWS V13.00,2013-03-04 01:34:00,
2013-03-03 16:39:00,37.8,35.4,29.77,East,84,0.0,0.0,91,0.00,,---,0.00,VWS V13.00,2013-03-04 01:39:00,
2013-03-03 16:44:00,37.8,35.4,29.77,SE,140,0.0,0.0,91,0.00,,---,0.00,VWS V13.00,2013-03-04 01:44:00,
2013-03-03 16:49:00,37.9,35.5,29.77,SSE,155,0.0,0.0,91,0.00,,---,0.00,VWS V13.00,2013-03-04 01:49:00,
2013-03-03 16:54:00,37.9,35.5,29.77,SE,128,0.0,0.0,91,0.00,,---,0.00,VWS V13.00,2013-03-04 01:54:00,
2013-03-03 16:59:00,37.9,35.5,29.77,ESE,119,0.0,0.0,91,0.00,,---,0.00,VWS V13.00,2013-03-04 01:59:00,
2013-03-03 17:04:00,37.9,35.5,29.77,SE,135,0.0,0.0,91,0.00,,---,0.00,VWS V13.00,2013-03-04 02:04:00,
2013-03-03 17:09:00,38.1,36.0,29.77,SSE,160,0.0,0.0,92,0.00,,---,0.00,VWS V13.00,2013-03-04 02:09:00,
2013-03-03 17:14:00,38.5,36.9,29.77,ESE,108,0.0,0.0,94,0.00,,---,0.00,VWS V13.00,2013-03-04 02:14:00,
2013-03-03 17:19:00,38.5,36.9,29.77,South,178,0.0,0.0,94,0.00,,---,0.00,VWS V13.00,2013-03-04 02:19:00,
2013-03-03 17:24:00,38.5,36.9,29.77,South,184,0.0,0.0,94,0.00,,---,0.00,VWS V13.00,2013-03-04 02:24:00,
2013-03-03 17:29:00,38.5,36.9,29.77,SSE,149,0.0,0.0,94,0.00,,---,0.00,VWS V13.00,2013-03-04 02:29:00,
2013-03-03 17:34:00,38.5,36.9,29.77,SW,234,0.0,0.0,94,0.00,,---,0.00,VWS V13.00,2013-03-04 02:34:00,
2013-03-03 17:39:00,38.5,37.2,29.77,ESE,111,0.0,0.0,95,0.00,,---,0.00,VWS V13.00,2013-03-04 02:39:00,
2013-03-03 17:44:00,38.5,37.2,29.77,ESE,122,0.0,0.0,95,0.00,,---,0.00,VWS V13.00,2013-03-04 02:44:00,
2013-03-03 17:49:00,38.5,37.2,29.77,ENE,77,0.0,0.0,95,0.00,,---,0.00,VWS V13.00,2013-03-04 02:49:00,
2013-03-03 17:54:00,38.5,37.2,29.77,SE,140,0.0,10.5,95,0.00,,---,0.00,VWS V13.00,2013-03-04 02:54:00,
2013-03-03 17:59:00,38.5,37.2,29.77,East,93,0.0,10.5,95,0.00,,---,0.00,VWS V13.00,2013-03-04 02:59:00,
2013-03-03 18:04:00,38.5,37.2,29.77,ESE,116,0.0,0.0,95,0.00,,---,0.00,VWS V13.00,2013-03-04 03:04:00,
2013-03-03 18:09:00,38.5,37.2,29.77,East,90,0.0,0.0,95,0.00,,---,0.00,VWS V13.00,2013-03-04 03:09:00,
2013-03-03 18:14:00,38.5,37.2,29.77,ENE,62,0.0,0.0,95,0.00,,---,0.00,VWS V13.00,2013-03-04 03:14:00,
2013-03-03 18:19:00,38.5,37.2,29.77,SE,128,0.0,7.6,95,0.00,,---,0.00,VWS V13.00,2013-03-04 03:19:00,
2013-03-03 18:24:00,38.7,37.6,29.77,SSE,153,2.7,7.6,96,0.00,,---,0.00,VWS V13.00,2013-03-04 03:24:00,
2013-03-03 18:29:00,38.7,37.6,29.77,East,93,0.0,7.6,96,0.00,,---,0.00,VWS V13.00,2013-03-04 03:29:00,
2013-03-03 18:34:00,38.7,37.6,29.77,SE,130,2.2,7.6,96,0.00,,---,0.00,VWS V13.00,2013-03-04 03:34:00,
2013-03-03 18:39:00,38.7,37.6,29.77,SSE,157,0.0,7.6,96,0.00,,---,0.00,VWS V13.00,2013-03-04 03:39:00,
2013-03-03 18:44:00,38.7,37.9,29.83,South,185,0.0,7.6,97,0.00,,---,0.00,VWS V13.00,2013-03-04 03:44:00,
2013-03-03 18:49:00,38.7,37.9,29.83,ENE,64,0.0,7.6,97,0.00,,---,0.00,VWS V13.00,2013-03-04 03:49:00,
2013-03-03 18:54:00,38.5,37.7,29.83,ENE,76,0.0,7.6,97,0.00,,---,0.00,VWS V13.00,2013-03-04 03:54:00,
2013-03-03 18:59:00,38.5,37.7,29.83,SSE,156,0.0,7.6,97,0.00,,---,0.00,VWS V13.00,2013-03-04 03:59:00,
2013-03-03 19:04:00,38.7,38.2,29.83,East,101,0.0,5.8,98,0.00,,---,0.00,VWS V13.00,2013-03-04 04:04:00,
2013-03-03 19:09:00,38.7,38.2,29.83,South,170,0.0,8.3,98,0.00,,---,0.00,VWS V13.00,2013-03-04 04:09:00,
2013-03-03 19:14:00,38.7,38.2,29.83,NW,317,0.0,8.3,98,0.00,,---,0.00,VWS V13.00,2013-03-04 04:14:00,
2013-03-03 19:19:00,38.7,38.2,29.83,East,82,0.0,8.3,98,0.00,,---,0.00,VWS V13.00,2013-03-04 04:19:00,
2013-03-03 19:24:00,38.7,38.2,29.83,ESE,112,0.0,5.8,98,0.00,,---,0.00,VWS V13.00,2013-03-04 04:24:00,
2013-03-03 19:29:00,38.7,38.2,29.83,South,169,0.0,5.8,98,0.00,,---,0.00,VWS V13.00,2013-03-04 04:29:00,
2013-03-03 19:34:00,38.7,38.2,29.83,SW,218,0.0,5.8,98,0.00,,---,0.00,VWS V13.00,2013-03-04 04:34:00,
2013-03-03 19:39:00,38.7,38.2,29.83,ESE,102,0.0,5.8,98,0.00,,---,0.00,VWS V13.00,2013-03-04 04:39:00,
2013-03-03 19:44:00,38.7,38.2,29.83,SSE,147,0.0,0.0,98,0.00,,---,0.00,VWS V13.00,2013-03-04 04:44:00,
2013-03-03 19:49:00,38.7,38.2,29.83,SSE,155,0.0,0.0,98,0.00,,---,0.00,VWS V13.00,2013-03-04 04:49:00,
2013-03-03 19:54:00,38.7,38.2,29.83,ENE,57,0.0,0.0,98,0.00,,---,0.00,VWS V13.00,2013-03-04 04:54:00,
2013-03-03 19:59:00,38.7,38.2,29.83,East,83,0.0,0.0,98,0.00,,---,0.00,VWS V13.00,2013-03-04 04:59:00,
2013-03-03 20:00:00,38.5,38.0,29.83,East,83,0.0,0.0,98,0.00,,---,0.00,VWS V13.00,2013-03-04 05:00:00,
2013-03-03 20:05:00,38.7,38.2,29.83,SSW,196,0.0,7.2,98,0.00,,---,0.00,VWS V13.00,2013-03-04 05:05:00,
2013-03-03 20:10:00,38.7,38.2,29.83,ENE,77,0.0,7.2,98,0.00,,---,0.00,VWS V13.00,2013-03-04 05:10:00,
2013-03-03 20:15:00,38.7,38.2,29.83,SE,135,0.0,7.2,98,0.00,,---,0.00,VWS V13.00,2013-03-04 05:15:00,
2013-03-03 20:20:00,38.7,38.2,29.85,ESE,103,2.2,2.2,98,0.00,,---,0.00,VWS V13.00,2013-03-04 05:20:00,
2013-03-03 20:25:00,38.8,38.3,29.85,SSE,163,5.8,8.1,98,0.00,,---,0.00,VWS V13.00,2013-03-04 05:25:00,
2013-03-03 20:30:00,38.8,38.3,29.85,South,189,0.0,8.1,98,0.00,,---,0.00,VWS V13.00,2013-03-04 05:30:00,
2013-03-03 20:35:00,38.8,38.3,29.85,ESE,123,0.0,8.1,98,0.00,,---,0.00,VWS V13.00,2013-03-04 05:35:00,
2013-03-03 20:40:00,38.8,38.3,29.85,SE,135,0.0,8.1,98,0.00,,---,0.00,VWS V13.00,2013-03-04 05:40:00,
2013-03-03 20:45:00,39.0,38.5,29.88,East,90,0.0,0.0,98,0.00,,---,0.00,VWS V13.00,2013-03-04 05:45:00,
2013-03-03 20:50:00,39.0,38.5,29.88,SSE,155,0.0,0.0,98,0.00,,---,0.00,VWS V13.00,2013-03-04 05:50:00,
2013-03-03 20:55:00,39.0,38.5,29.88,SE,128,0.0,0.0,98,0.00,,---,0.00,VWS V13.00,2013-03-04 05:55:00,
2013-03-03 21:00:00,39.0,38.5,29.88,ESE,102,0.0,0.0,98,0.00,,---,0.00,VWS V13.00,2013-03-04 06:00:00,
2013-03-03 21:05:00,39.0,38.5,29.88,ESE,114,0.0,0.0,98,0.00,,---,0.00,VWS V13.00,2013-03-04 06:05:00,
2013-03-03 21:10:00,39.0,38.5,29.88,ESE,108,0.0,0.0,98,0.00,,---,0.00,VWS V13.00,2013-03-04 06:10:00,
2013-03-03 21:15:00,39.0,38.5,29.88,South,175,0.0,0.0,98,0.00,,---,0.00,VWS V13.00,2013-03-04 06:15:00,
2013-03-03 21:20:00,39.0,38.5,29.88,SE,141,0.0,0.0,98,0.00,,---,0.00,VWS V13.00,2013-03-04 06:20:00,
2013-03-03 21:25:00,39.0,38.5,29.88,SSE,148,0.0,0.0,98,0.00,,---,0.00,VWS V13.00,2013-03-04 06:25:00,
2013-03-03 21:30:00,39.0,38.5,29.88,ESE,114,0.0,0.0,98,0.00,,---,0.00,VWS V13.00,2013-03-04 06:30:00,
2013-03-03 21:35:00,39.0,38.5,29.88,ESE,113,0.0,0.0,98,0.00,,---,0.00,VWS V13.00,2013-03-04 06:35:00,
2013-03-03 21:40:00,39.0,38.5,29.88,SSE,166,0.0,0.0,98,0.00,,---,0.00,VWS V13.00,2013-03-04 06:40:00,
2013-03-03 21:45:00,39.2,38.7,29.88,SE,140,0.0,8.7,98,0.00,,---,0.00,VWS V13.00,2013-03-04 06:45:00,
2013-03-03 21:50:00,39.2,38.7,29.88,ESE,112,0.0,11.4,98,0.00,,---,0.00,VWS V13.00,2013-03-04 06:50:00,
2013-03-03 21:55:00,39.2,38.7,29.91,SE,137,0.0,11.4,98,0.00,,---,0.00,VWS V13.00,2013-03-04 06:55:00,
2013-03-03 21:59:00,39.2,38.7,29.91,SE,142,0.0,11.4,98,0.00,,---,0.00,VWS V13.00,2013-03-04 06:59:00,
2013-03-03 22:04:00,39.2,38.7,29.91,South,171,0.0,0.0,98,0.00,,---,0.00,VWS V13.00,2013-03-04 07:04:00,
2013-03-03 22:09:00,39.2,38.7,29.91,SSE,153,0.0,0.0,98,0.00,,---,0.00,VWS V13.00,2013-03-04 07:09:00,
2013-03-03 22:14:00,39.2,38.7,29.91,NE,56,0.0,0.0,98,0.00,,---,0.00,VWS V13.00,2013-03-04 07:14:00,
2013-03-03 22:19:00,39.2,38.7,29.91,SSE,163,0.0,0.0,98,0.00,,---,0.00,VWS V13.00,2013-03-04 07:19:00,
2013-03-03 22:24:00,39.2,38.7,29.91,SSE,159,0.0,7.6,98,0.00,,---,0.00,VWS V13.00,2013-03-04 07:24:00,
2013-03-03 22:29:00,39.4,38.9,29.91,SE,139,0.0,7.6,98,0.00,,---,0.00,VWS V13.00,2013-03-04 07:29:00,
2013-03-03 22:34:00,39.4,38.9,29.91,East,84,0.0,7.6,98,0.00,,---,0.00,VWS V13.00,2013-03-04 07:34:00,
2013-03-03 22:39:00,39.4,38.9,29.91,SSW,201,0.0,7.6,98,0.00,,---,0.00,VWS V13.00,2013-03-04 07:39:00,
2013-03-03 22:44:00,39.4,38.9,29.91,SSE,149,0.0,0.0,98,0.00,,---,0.00,VWS V13.00,2013-03-04 07:44:00,
2013-03-03 22:49:00,39.4,38.9,29.91,SE,136,0.0,0.0,98,0.00,,---,0.00,VWS V13.00,2013-03-04 07:49:00,
2013-03-03 22:54:00,39.4,38.9,29.91,South,177,0.0,0.0,98,0.00,,---,0.00,VWS V13.00,2013-03-04 07:54:00,
2013-03-03 22:59:00,39.4,38.9,29.91,South,175,0.0,0.0,98,0.00,,---,0.00,VWS V13.00,2013-03-04 07:59:00,
2013-03-03 23:04:00,39.4,38.9,29.91,South,174,0.0,0.0,98,0.00,,---,0.00,VWS V13.00,2013-03-04 08:04:00,
2013-03-03 23:09:00,39.4,38.9,29.91,South,187,0.0,0.0,98,0.00,,---,0.00,VWS V13.00,2013-03-04 08:09:00,
2013-03-03 23:14:00,39.4,38.9,29.91,South,184,0.0,0.0,98,0.00,,---,0.00,VWS V13.00,2013-03-04 08:14:00,
2013-03-03 23:19:00,39.2,38.7,29.91,SW,234,0.0,0.0,98,0.00,,---,0.00,VWS V13.00,2013-03-04 08:19:00,
2013-03-03 23:24:00,39.2,38.7,29.91,SSW,200,0.0,0.0,98,0.00,,---,0.00,VWS V13.00,2013-03-04 08:24:00,
2013-03-03 23:29:00,39.2,38.7,29.94,South,186,0.0,0.0,98,0.00,,---,0.00,VWS V13.00,2013-03-04 08:29:00,
2013-03-03 23:34:00,39.0,38.5,29.94,SSW,203,0.0,0.0,98,0.00,,---,0.00,VWS V13.00,2013-03-04 08:34:00,
2013-03-03 23:39:00,39.0,38.5,29.94,SSE,167,0.0,0.0,98,0.00,,---,0.00,VWS V13.00,2013-03-04 08:39:00,
2013-03-03 23:44:00,39.0,38.5,29.94,ESE,122,0.0,0.0,98,0.00,,---,0.00,VWS V13.00,2013-03-04 08:44:00,
2013-03-03 23:49:00,39.0,38.5,29.94,SSW,195,0.0,0.0,98,0.00,,---,0.00,VWS V13.00,2013-03-04 08:49:00,
2013-03-03 23:54:00,39.2,38.7,29.94,SSE,153,0.0,0.0,98,0.00,,---,0.00,VWS V13.00,2013-03-04 08:54:00,
2013-03-03 23:59:00,39.2,38.7,29.94,South,185,0.0,0.0,98,0.00,,---,0.00,VWS V13.00,2013-03-04 08:59:00,